Wind_Speed
6 7 5 5 6 7 4 1 1 1 1 2 2 1 2 2 1 2 3 3 1 1 1 1 3 2 3 3 5 6 6 3 4 2 1 3 8 15 17 23 29 25 24 25 25 25 25 25 25 24 24 25 25 25 24 24 25 25 24 24 25 24 24 24 23 23 23 23 22 21 19 18 17 16 16 15 15 15 16 17 19 19 19 19 18 17 15 15 14 14 14 14 13 13 13 12 12
7 7 5 6 6 4 2 1 1 1 2 2 3 2 2 1 2 1 6 5 1 3 3 5 7 6 5 4 6 6 6 5 2 2 3 8 13 13 16 23 25 24 24 25 25 25 25 25 24 25 24 24 25 24 24 24 24 23 23 24 24 24 24 24 24 23 22 21 20 19 18 17 17 16 16 15 15 15 16 17 18 18 18 18 18 17 16 15 14 14 14 14 13 13 13 12 13
7 6 7 9 5 0 1 0 2 2 3 4 3 2 2 3 4 2 5 2 5 4 2 3 6 5 3 3 3 3 3 3 3 4 5 12 13 12 17 21 22 22 24 24 25 24 24 25 24 25 25 25 25 25 25 23 23 22 22 22 21 22 22 22 22 22 20 19 18 17 17 17 16 16 16 15 15 15 16 17 18 18 18 18 18 17 16 16 15 15 14 14 14 13 13 13 13
7 6 9 8 2 0 2 1 1 2 4 3 2 2 3 4 4 1 3 4 6 3 1 2 3 3 3 5 3 3 5 3 4 5 5 10 10 13 18 20 21 21 22 23 23 24 23 24 24 25 26 25 25 25 24 23 23 22 22 21 21 21 21 21 20 20 19 17 17 16 16 16 15 15 15 15 14 15 16 16 17 17 17 17 16 16 16 16 16 16 15 14 14 14 13 14 15
6 6 8 4 1 1 2 1 1 3 4 2 0 2 4 4 2 1 1 0 5 4 1 2 3 3 4 6 2 1 4 4 6 6 6 9 11 15 18 20 21 20 22 22 23 23 22 23 24 24 25 24 24 24 24 23 22 22 22 22 21 21 20 20 19 19 18 16 16 15 15 15 15 15 15 14 14 15 15 15 15 16 16 16 14 15 16 16 17 17 15 14 14 14 14 15 17
7 6 5 2 0 0 1 2 2 5 3 2 1 2 4 3 1 3 2 5 4 5 1 2 3 5 5 4 2 3 2 1 6 6 7 12 14 16 19 20 21 20 21 22 23 23 23 23 24 23 23 23 23 23 23 23 22 22 21 21 21 21 20 19 19 18 17 16 15 15 14 14 14 15 15 15 15 15 15 15 16 16 16 16 14 13 14 15 16 16 16 15 14 14 15 16 16
8 5 2 2 1 1 2 3 4 5 2 3 2 0 2 2 2 4 4 4 2 5 2 3 7 7 5 3 3 4 5 1 4 7 10 15 17 17 19 20 21 21 20 20 23 23 24 24 25 24 23 23 22 22 22 22 21 21 20 21 20 20 19 18 18 18 17 15 14 14 13 13 13 14 14 14 14 14 14 15 16 16 15 15 14 13 12 13 14 15 15 15 14 14 14 14 13
6 3 0 2 2 1 2 3 3 3 1 3 4 3 4 4 4 4 4 2 1 4 5 7 7 6 4 2 2 5 6 4 9 12 14 17 18 18 19 21 22 20 19 20 22 23 24 24 25 24 23 23 23 22 21 21 21 20 20 20 19 19 18 17 17 16 15 14 13 12 12 12 12 12 13 13 13 13 13 14 14 14 14 14 14 13 12 12 12 14 14 14 12 12 11 11 10
3 0 1 1 2 0 1 2 2 2 2 4 5 5 6 5 6 6 5 4 2 4 7 8 5 4 5 4 3 4 5 8 13 15 16 17 18 19 19 20 22 21 20 21 23 23 23 24 24 24 24 23 22 21 21 21 20 20 19 19 18 17 17 16 16 15 14 13 12 12 12 11 11 11 12 12 12 12 12 12 12 12 12 13 12 12 11 11 12 12 13 13 12 11 11 10 10
1 1 1 1 2 2 2 2 1 1 3 4 5 8 6 3 6 7 7 5 5 7 7 5 3 7 10 6 4 3 5 11 14 16 16 17 18 18 18 18 20 21 21 22 23 23 23 23 24 24 23 22 20 20 19 19 20 19 18 17 17 16 16 16 15 15 13 12 12 11 11 11 11 11 12 11 11 11 11 11 10 10 10 10 11 11 10 11 12 12 12 12 12 12 11 11 10
1 1 1 1 3 3 3 3 1 1 3 4 5 7 4 3 4 6 8 5 6 8 7 5 7 11 11 6 2 4 9 12 15 17 16 16 18 18 18 17 18 19 20 22 22 21 22 22 22 23 23 21 19 18 19 18 19 19 17 16 15 15 15 15 15 14 13 12 11 11 10 11 11 11 12 11 11 11 10 10 9 9 9 9 9 9 10 10 12 12 12 11 10 10 10 10 8
1 1 1 2 3 3 2 2 1 3 4 3 2 2 3 3 3 5 8 6 7 10 7 4 8 10 9 6 3 7 12 12 14 16 17 17 18 18 18 17 17 17 19 22 21 21 21 20 19 20 21 22 18 17 18 17 17 18 17 15 14 15 14 14 14 13 12 12 11 10 10 10 10 10 11 11 11 10 9 9 8 8 8 8 8 8 9 10 11 11 10 9 8 8 8 9 8
1 2 2 2 1 1 1 1 1 3 2 0 1 5 6 1 1 4 6 7 8 10 5 4 10 7 6 6 5 7 10 11 14 16 17 18 19 18 17 18 18 19 20 22 21 21 21 20 19 19 20 22 21 19 17 17 18 18 16 15 14 14 14 14 13 12 12 12 11 10 10 10 9 10 11 11 10 10 9 8 8 7 7 7 8 9 10 10 10 10 9 8 6 6 6 8 9
1 1 2 2 0 1 2 1 1 2 1 2 0 6 5 2 3 2 6 10 7 4 5 7 8 5 6 7 5 7 9 13 15 15 16 17 18 17 17 18 19 20 21 21 22 22 22 21 21 20 21 23 24 22 19 17 17 17 16 16 14 13 14 13 12 12 12 11 11 10 10 9 9 9 10 11 10 10 9 8 8 8 8 8 9 10 10 11 10 10 9 8 6 5 5 7 9
2 1 1 1 1 1 2 1 1 2 2 2 1 5 3 3 3 2 4 6 5 2 5 6 1 1 6 8 6 9 13 16 17 16 18 18 18 17 17 17 18 19 18 19 20 21 21 21 21 21 21 21 22 23 22 19 18 17 16 15 14 14 14 13 12 12 12 11 10 9 9 9 8 8 9 9 9 9 9 8 8 8 8 8 8 9 9 10 10 9 8 7 7 6 5 6 9
1 1 1 1 2 2 3 2 1 2 2 1 1 4 3 5 3 3 3 2 7 3 3 3 3 3 5 7 8 16 18 18 18 18 20 20 19 17 16 17 18 17 17 17 18 19 18 19 20 19 19 19 20 21 22 21 20 19 17 15 13 13 14 13 12 12 12 11 10 10 9 9 8 8 8 8 8 9 9 8 8 8 8 8 8 8 8 8 9 8 7 6 6 6 6 6 8
1 1 2 2 2 3 4 4 3 2 0 0 2 5 4 5 3 4 4 6 8 4 4 2 3 3 2 6 14 23 21 20 20 20 21 21 19 16 16 16 17 16 16 15 16 18 17 17 18 17 19 19 19 20 20 19 19 19 17 15 14 13 14 13 13 12 11 10 10 10 9 9 9 8 8 8 8 8 8 8 7 8 8 7 7 6 7 7 7 7 6 6 5 6 6 6 8
2 2 2 3 3 3 5 5 4 1 2 2 4 4 4 4 3 4 5 9 8 6 5 4 4 5 7 13 21 23 21 22 21 21 21 19 17 16 16 16 16 16 15 15 15 17 17 16 16 15 18 19 19 19 19 19 18 17 16 15 14 13 13 13 13 12 11 10 10 10 9 9 9 8 8 8 8 7 7 7 7 7 7 7 7 6 5 6 6 6 5 5 5 5 5 5 7
1 2 2 3 3 2 3 3 3 1 2 4 4 1 3 4 1 3 2 5 6 5 5 4 7 9 11 16 21 21 21 22 21 21 20 18 18 18 17 17 17 17 16 16 16 17 17 16 15 14 16 18 17 17 17 17 17 16 14 14 14 13 13 12 13 12 11 11 10 10 9 9 9 8 8 8 8 7 7 7 7 6 7 7 6 6 5 5 6 5 5 5 5 5 5 5 6
2 1 2 3 3 3 3 4 4 3 3 5 4 0 3 3 2 2 2 5 4 4 5 5 6 9 12 15 18 20 21 20 20 20 18 18 18 17 16 17 17 18 17 16 17 17 16 16 15 13 13 15 15 15 16 16 15 14 13 13 13 14 13 12 12 11 11 10 9 9 9 9 9 9 9 9 8 8 8 7 7 6 6 6 6 6 5 5 5 5 5 5 5 6 5 5 5
2 2 2 2 3 3 4 5 6 5 3 3 3 2 2 1 1 2 6 6 3 5 7 7 10 14 15 14 16 19 20 19 20 20 18 18 17 16 15 15 16 18 17 16 16 16 15 15 15 14 13 13 13 13 14 15 15 14 13 12 12 13 12 12 11 10 10 9 9 8 9 9 9 9 10 10 9 8 8 7 6 6 6 6 6 6 5 4 4 4 4 4 5 6 6 6 5
2 2 1 2 4 3 4 2 4 4 2 2 2 4 3 1 0 4 7 5 1 2 5 7 11 17 18 17 17 18 18 17 19 20 20 19 18 17 16 15 14 16 17 15 15 14 15 14 13 14 13 12 12 12 13 14 14 14 13 13 13 12 12 12 10 9 9 9 8 8 8 9 9 9 10 10 9 8 8 7 6 6 6 5 5 5 5 5 4 4 3 3 3 5 6 6 5
3 2 1 3 4 4 4 1 2 3 1 2 2 3 1 0 1 2 5 3 2 4 4 8 11 16 19 19 18 18 18 17 19 22 22 21 21 19 19 18 15 16 17 15 14 14 15 14 12 12 12 12 12 12 12 12 13 13 13 12 13 12 11 10 9 9 8 8 8 7 8 9 9 9 9 9 9 8 8 7 7 6 6 5 5 4 5 4 4 3 3 3 4 5 6 6 6
3 2 2 4 5 6 4 2 2 2 3 3 1 3 3 2 0 2 4 3 4 5 4 11 13 16 18 18 18 18 18 18 19 21 22 20 21 20 19 17 15 17 18 15 14 14 15 14 13 13 13 13 13 13 13 12 12 12 12 12 12 11 10 9 9 9 9 8 8 8 8 8 9 9 9 9 8 8 7 6 6 6 6 5 4 3 4 4 3 3 3 3 4 5 6 6 6
4 4 2 2 4 6 4 3 5 4 5 2 1 4 3 2 2 3 3 1 3 0 8 13 14 15 16 17 17 16 16 17 18 21 20 17 17 17 16 16 15 16 17 15 14 13 14 13 13 14 14 14 15 15 14 13 12 12 12 12 12 10 9 8 9 10 10 9 9 8 8 9 10 9 9 8 8 7 6 6 5 5 5 4 4 3 4 4 3 4 4 4 5 6 6 7 7
4 5 3 3 3 4 3 4 5 4 3 3 4 4 1 1 2 3 1 3 3 6 10 13 15 16 15 15 15 15 16 17 18 19 18 16 16 15 14 14 15 16 15 14 14 12 13 13 14 15 14 15 17 15 13 13 12 11 12 11 10 10 8 9 10 11 11 10 9 9 9 10 10 9 9 8 8 7 5 5 6 6 5 5 5 4 5 5 4 5 5 6 7 7 6 7 7
3 4 3 4 3 3 2 4 3 2 2 6 6 3 1 0 2 2 2 4 6 9 11 13 14 14 14 13 14 14 14 16 17 17 16 14 13 13 14 14 15 16 15 14 14 13 14 14 14 15 14 14 15 14 12 13 11 11 13 11 9 10 9 10 11 11 11 11 10 11 10 11 10 9 8 7 7 5 4 5 7 7 6 6 6 6 6 6 6 6 7 8 9 8 7 7 7
2 3 2 3 3 4 4 4 3 2 3 6 6 1 4 1 2 2 4 7 9 10 12 13 12 12 13 13 14 12 12 14 16 13 9 9 9 7 7 13 17 16 15 16 15 15 15 15 15 14 13 13 14 13 12 11 10 10 11 9 8 10 9 9 12 12 12 11 12 12 12 12 12 10 9 8 6 4 5 7 7 7 6 6 6 6 6 5 6 6 7 9 8 8 7 6 6
1 2 2 2 3 4 4 3 2 3 2 4 6 3 3 4 3 3 7 10 10 11 12 12 11 11 11 12 12 11 11 12 11 9 12 14 11 7 2 4 14 16 15 15 16 16 16 16 15 13 13 14 14 12 10 9 9 8 8 7 8 9 9 8 11 13 13 12 13 14 15 15 14 11 11 11 7 6 9 10 7 7 6 6 6 5 4 4 4 4 5 6 6 7 6 6 5
2 2 1 2 2 2 3 0 1 3 2 5 6 4 3 6 4 6 9 11 12 11 11 11 11 10 11 12 10 10 9 8 7 10 13 14 16 15 8 3 9 14 15 15 16 17 18 16 14 13 14 14 13 11 10 9 8 8 7 7 7 8 9 9 10 13 14 12 12 15 16 15 12 12 13 10 7 9 12 10 8 9 8 6 6 5 4 5 5 4 4 4 4 5 5 6 6
1 2 1 1 2 3 1 1 3 4 1 4 7 5 4 4 3 8 10 12 13 12 12 12 11 10 11 11 10 8 7 6 8 10 11 12 12 14 16 12 11 13 14 16 16 17 20 18 14 14 15 14 12 11 10 9 8 8 7 6 6 6 7 6 8 12 13 11 10 12 13 13 10 11 13 8 6 10 10 7 7 10 9 6 5 4 4 6 6 6 6 5 5 4 4 5 5
1 2 2 0 2 2 2 2 5 4 2 2 6 4 3 3 2 9 11 12 13 11 12 12 12 12 12 11 9 8 7 7 8 9 9 11 12 12 14 16 17 17 15 16 17 17 19 18 15 15 15 14 12 11 11 10 9 9 8 7 6 5 4 4 6 10 10 9 8 7 8 8 8 9 9 5 6 9 7 6 6 7 8 6 4 3 4 6 6 7 7 6 5 5 4 4 3
1 1 2 1 2 2 1 2 3 3 2 2 5 2 2 2 1 9 12 13 13 10 11 13 12 13 12 11 8 7 7 7 8 8 10 11 12 13 14 17 19 19 17 16 17 17 17 16 15 15 14 14 14 13 13 11 10 10 8 7 6 5 6 6 6 6 5 5 5 4 4 4 4 5 4 3 6 6 4 5 5 6 6 4 3 3 4 4 5 6 7 7 6 5 5 5 4
1 0 1 1 2 2 2 2 0 1 2 3 4 4 5 1 2 9 13 13 13 10 11 12 10 11 11 11 9 8 7 7 8 9 11 12 12 14 16 17 18 18 17 16 16 16 16 15 15 15 14 15 16 16 15 13 11 10 8 7 6 5 6 5 4 3 2 2 3 3 4 4 2 2 1 2 5 5 4 4 5 6 5 4 4 3 4 5 5 5 6 7 6 6 7 7 6
4 2 2 1 2 2 3 2 1 1 1 3 4 6 9 3 3 9 12 12 13 10 10 10 10 10 10 10 10 10 10 9 8 10 12 12 13 15 17 16 17 18 16 14 15 14 15 14 13 14 14 15 17 16 15 14 12 11 10 7 5 5 4 3 1 1 0 1 2 3 3 3 2 1 1 1 4 5 5 4 5 6 6 5 5 5 6 6 5 5 6 7 7 7 7 7 7
5 3 2 2 2 3 4 3 1 1 2 5 6 7 10 6 5 10 12 12 11 10 9 8 9 10 9 10 10 10 11 10 9 10 12 13 14 17 19 17 18 21 17 13 13 14 14 14 13 13 15 17 16 16 16 15 12 10 10 8 7 6 4 3 3 2 2 1 0 1 1 2 2 2 2 0 3 3 4 4 5 5 6 5 4 5 6 5 5 6 6 6 7 7 7 7 8
4 3 2 2 2 3 4 2 2 2 3 4 5 8 9 6 4 9 11 11 11 11 10 10 10 10 9 11 11 11 11 8 8 9 11 13 14 17 19 18 19 21 17 13 14 15 14 15 15 13 16 17 17 18 17 15 13 11 9 9 9 8 6 6 6 5 4 4 3 3 2 2 2 3 3 2 3 2 1 3 4 5 6 5 5 5 4 4 4 6 6 6 6 8 8 8 10
2 2 2 2 3 4 3 1 1 2 3 2 1 5 6 1 1 7 10 11 11 11 11 10 10 10 9 12 12 11 9 6 6 7 9 12 13 16 18 19 20 19 17 17 18 18 16 16 16 15 16 18 17 18 16 13 13 12 11 11 11 10 8 8 8 7 6 6 7 6 5 5 4 4 5 4 4 3 1 2 3 4 5 6 6 4 3 3 5 6 6 6 6 8 9 11 15
2 2 2 2 2 4 2 1 1 1 2 2 1 3 2 2 0 5 9 10 8 8 10 9 9 9 9 11 11 10 9 8 7 7 8 11 12 14 16 18 20 19 18 19 19 20 19 17 17 17 18 18 17 16 15 13 14 13 12 12 12 11 11 10 9 8 8 8 8 8 7 6 6 6 7 6 4 3 2 2 2 3 4 5 5 3 2 3 4 5 6 7 8 9 9 13 18
2 2 2 2 1 1 1 1 1 1 1 1 3 3 1 3 2 4 5 5 2 3 6 6 8 10 10 10 10 9 10 10 9 8 8 9 11 13 14 15 18 19 18 19 20 21 21 21 20 20 20 18 17 16 15 15 15 13 11 11 12 11 12 12 10 9 9 9 8 7 6 6 6 6 7 6 5 3 1 1 1 2 3 4 3 2 2 2 3 3 5 6 9 11 10 11 14
2 3 4 3 2 4 3 1 1 0 1 1 3 3 1 2 3 4 3 2 2 2 4 6 8 9 9 9 10 10 11 11 10 10 8 8 10 12 13 15 17 18 19 20 21 22 22 21 21 20 20 19 17 17 16 16 16 15 13 13 13 12 13 12 11 10 9 8 7 6 5 5 6 6 6 6 5 3 2 1 1 1 2 2 2 2 2 2 2 3 4 6 8 10 10 10 9
2 5 9 6 3 3 2 0 2 2 2 2 1 2 2 2 2 5 4 4 6 3 4 8 9 9 10 10 11 11 10 10 11 11 9 9 10 11 12 14 16 17 19 22 22 21 21 19 19 20 20 19 18 18 17 17 17 17 16 15 14 13 13 11 11 11 10 7 6 5 5 6 6 6 6 5 5 4 3 2 1 1 1 1 1 2 2 2 2 2 3 4 6 8 9 9 8
2 4 8 7 2 1 2 2 2 2 1 2 2 1 2 2 1 2 3 7 9 5 6 8 9 11 12 11 12 12 11 11 11 11 9 9 11 12 12 14 16 17 19 21 21 20 20 18 18 20 20 20 19 19 19 19 19 18 16 14 13 13 12 12 11 11 10 8 6 6 7 7 7 6 6 5 4 5 4 3 3 2 2 1 1 2 2 2 2 3 2 4 6 7 8 8 8
2 2 6 8 5 4 3 2 1 0 0 1 2 2 2 3 2 0 2 6 9 9 10 9 8 10 11 11 11 12 12 12 11 11 10 10 11 13 13 13 15 18 20 20 20 20 19 18 18 19 20 20 20 21 20 20 20 17 14 12 10 10 10 11 11 11 10 9 8 8 8 8 8 7 6 4 4 5 5 4 3 2 3 3 3 3 4 4 3 3 3 3 5 6 7 7 7
0 2 5 6 4 3 2 2 2 1 1 3 1 3 1 2 2 1 3 5 7 8 10 10 10 10 11 11 11 11 11 11 11 10 10 10 11 11 11 11 14 17 18 18 19 19 19 18 18 18 19 20 21 21 20 20 19 16 14 13 11 9 8 9 10 9 10 10 10 10 10 9 9 7 5 4 4 5 5 5 4 2 3 4 5 5 5 6 4 3 3 4 5 5 6 6 6
1 5 6 6 4 3 2 1 2 1 2 3 2 4 1 3 1 1 2 2 2 3 4 6 8 9 10 10 10 10 10 10 10 9 8 9 9 9 9 10 13 14 14 15 17 18 19 19 18 17 18 20 20 20 20 20 18 16 15 13 11 11 10 9 9 9 9 10 10 11 10 10 9 7 5 4 4 4 4 4 4 2 3 5 7 8 7 6 4 4 4 5 6 5 5 5 6
5 5 6 6 3 2 2 2 1 1 2 1 2 4 1 3 2 1 1 1 1 3 3 2 2 5 7 9 9 10 9 9 9 8 7 7 7 8 9 10 11 12 11 12 14 17 18 18 17 17 18 18 19 19 19 18 15 14 13 11 10 11 10 10 10 10 10 10 10 10 10 9 9 7 5 5 4 4 3 3 3 3 5 6 8 9 8 7 7 7 7 7 7 7 7 7 8
3 2 3 4 2 2 1 2 0 3 3 1 2 3 2 3 2 1 2 2 2 4 5 6 6 6 5 6 8 9 9 8 8 7 7 7 7 8 10 10 12 13 13 13 14 16 17 17 17 16 16 17 18 18 16 14 13 12 12 10 9 9 9 9 10 10 10 10 9 9 9 8 8 7 6 6 5 4 3 2 2 3 5 6 7 7 7 7 8 10 10 10 10 10 11 11 11
1 2 4 3 1 1 2 1 1 3 2 2 1 1 1 1 0 2 4 5 5 4 6 7 9 8 7 5 7 7 6 7 7 7 8 8 8 10 12 13 14 15 16 16 15 16 16 16 16 16 15 14 13 11 10 9 8 9 10 9 9 8 8 8 8 8 9 9 8 8 7 7 7 7 7 6 5 4 3 2 2 3 4 5 5 6 6 7 9 10 12 12 13 14 14 15 15
4 4 4 4 3 2 2 1 1 3 1 2 1 1 1 1 0 3 5 6 6 6 6 6 6 9 8 5 4 6 5 6 6 6 7 7 6 7 8 8 10 13 15 16 15 15 15 14 15 15 11 9 10 10 9 9 8 8 8 9 9 8 7 8 8 7 6 7 7 7 6 6 7 8 8 7 5 4 3 3 3 4 4 4 4 4 5 7 9 9 10 12 13 14 15 15 16
3 1 2 4 4 3 3 3 3 3 1 2 1 2 2 3 1 2 4 5 5 5 6 5 3 3 3 1 4 6 6 6 6 6 5 5 6 7 8 10 10 5 4 10 12 11 12 12 13 10 14 15 12 10 11 12 12 11 10 10 8 5 6 7 7 5 3 5 7 7 6 5 7 8 8 7 5 5 4 5 5 4 4 4 3 4 5 7 7 8 9 10 12 13 13 14 14
1 1 2 2 3 3 1 0 1 1 1 1 2 2 1 1 0 2 3 3 4 6 7 6 5 4 5 7 7 8 8 8 8 8 8 8 8 11 12 8 9 14 11 5 7 8 9 10 9 16 22 14 10 12 16 16 16 16 14 12 10 8 7 5 3 3 5 7 8 7 6 6 8 9 8 6 5 5 6 6 5 4 4 3 2 3 4 6 6 6 8 9 11 12 12 12 13
3 2 4 1 0 3 3 2 2 1 2 2 1 0 0 1 1 1 2 1 3 6 6 6 6 6 8 8 8 9 10 10 9 9 9 8 8 9 11 10 2 11 13 7 3 5 8 8 13 24 18 10 17 19 19 16 15 19 17 14 15 13 8 6 7 8 8 8 7 6 7 7 9 9 8 7 5 5 6 6 6 5 5 5 4 3 3 4 5 5 7 9 10 10 10 11 12
3 3 5 4 2 2 2 2 2 0 3 2 1 0 1 3 3 1 1 1 4 5 5 6 5 6 8 8 9 11 11 10 9 9 9 9 10 7 6 8 5 4 8 4 2 3 6 8 15 21 13 17 20 19 17 15 17 21 21 20 18 13 8 7 10 10 8 7 7 7 8 8 8 9 8 7 5 5 5 5 6 6 6 7 7 6 5 4 4 6 7 9 9 10 10 12 13
1 2 4 3 2 2 2 2 3 4 3 2 2 1 2 2 1 2 4 5 6 5 5 6 6 7 8 7 8 9 9 7 6 6 6 6 9 7 5 8 8 2 0 1 1 3 6 7 12 17 15 16 17 19 20 21 22 23 24 23 18 12 10 10 12 12 10 9 8 9 10 9 8 8 7 7 6 5 5 5 5 5 6 7 8 7 7 7 6 7 8 9 9 9 11 12 13
3 3 3 1 1 2 2 1 2 4 4 2 2 2 2 1 2 5 7 8 8 5 4 5 5 6 6 4 4 4 5 5 4 5 6 5 6 8 9 11 9 5 4 4 3 4 6 8 11 14 14 14 16 20 22 22 22 24 25 24 18 13 14 15 13 12 11 11 10 10 12 11 9 8 7 7 7 6 6 6 5 5 5 5 6 6 7 7 7 7 8 8 8 8 10 11 12
2 3 4 1 1 1 1 1 1 1 3 3 3 3 2 2 3 6 8 8 7 5 2 4 5 5 5 5 4 5 5 6 6 6 7 7 6 8 12 14 12 9 8 6 6 7 8 8 10 12 14 15 17 20 21 21 23 25 25 23 19 16 17 16 13 12 13 14 12 11 13 12 9 8 8 7 7 7 7 6 6 6 5 4 4 4 5 5 6 6 7 8 8 8 8 10 11
2 2 3 3 3 3 3 3 1 1 1 2 3 4 2 2 3 5 7 8 7 4 1 5 6 6 7 6 6 7 7 7 8 8 8 7 6 9 13 13 11 10 9 8 8 9 9 8 8 11 13 14 16 18 20 21 22 24 23 19 17 16 17 16 14 14 16 16 13 11 13 12 10 9 9 9 8 7 7 7 6 6 5 5 4 3 4 4 4 4 5 5 6 6 6 7 9
Wind_Direction
153 151 143 144 142 142 150 217 206 127 245 242 237 252 192 199 307 255 312 308 239 24 300 47 67 110 109 92 123 90 49 126 153 162 129 87 141 154 154 156 155 148 148 152 153 153 150 149 146 143 141 141 140 140 139 138 140 140 140 141 141 140 138 137 136 137 136 137 137 136 133 131 129 128 128 128 127 125 124 121 122 125 128 129 129 128 126 128 128 129 129 130 128 127 128 129 130
163 161 153 143 138 156 153 300 235 136 208 232 226 202 107 159 181 285 333 342 125 110 87 81 78 68 52 65 101 92 56 49 72 62 65 116 131 137 149 154 149 146 148 150 152 151 151 152 149 146 143 143 142 141 140 139 138 139 141 141 141 140 138 137 137 136 135 136 135 134 132 132 132 131 132 132 133 132 130 126 121 120 122 125 127 127 129 132 131 128 130 131 130 130 131 133 133
172 171 155 141 124 212 128 121 250 158 194 223 229 178 124 168 151 36 358 64 142 142 116 85 78 52 15 69 56 22 75 75 86 80 101 131 128 130 145 148 144 145 147 151 154 152 153 155 151 147 145 144 142 142 141 140 138 137 138 138 139 139 137 136 133 131 130 132 132 133 133 135 135 135 136 137 138 136 133 131 127 122 118 120 122 121 124 132 135 131 131 132 133 133 135 139 134
174 172 161 152 122 231 151 191 238 177 201 217 252 161 171 175 152 30 33 116 164 172 48 101 88 35 13 66 37 21 91 94 97 107 122 132 130 136 143 144 143 144 146 149 153 152 153 154 151 146 144 145 144 143 142 141 141 139 139 139 141 140 139 136 133 130 131 133 135 136 137 137 138 137 137 137 138 136 134 129 128 126 121 119 120 118 118 126 133 133 133 135 137 138 140 142 135
171 164 172 187 188 165 154 169 125 212 210 184 328 118 177 173 154 262 35 327 214 200 64 123 110 94 75 53 12 35 86 95 106 116 115 124 132 135 141 143 142 143 146 149 152 152 152 153 152 148 145 145 144 145 144 144 144 143 143 144 145 144 143 141 139 137 135 137 139 141 139 138 138 136 135 135 135 134 130 126 128 128 125 123 120 120 121 125 132 133 134 136 140 140 144 147 141
162 153 163 192 54 94 161 186 192 221 221 168 182 114 174 185 268 278 284 298 245 185 168 126 119 116 103 56 54 41 6 140 117 115 117 132 138 138 141 142 141 142 146 149 150 152 154 156 156 152 148 146 144 146 147 147 147 147 147 148 148 147 146 144 143 142 141 142 144 144 141 139 138 136 135 133 133 133 129 130 132 128 125 123 118 118 121 126 131 132 133 137 141 141 146 154 151
162 153 131 152 111 338 207 216 218 225 211 175 230 140 211 239 245 276 291 289 185 160 172 143 133 120 106 97 122 51 4 323 126 124 130 139 141 141 143 143 142 142 147 148 148 153 157 160 160 156 152 149 147 146 147 148 149 150 150 149 148 147 146 144 143 143 143 145 148 147 144 142 139 138 136 134 134 133 133 136 134 128 126 123 118 117 119 125 130 132 135 139 142 144 148 154 160
166 157 357 175 145 345 215 238 239 229 208 217 258 256 257 272 236 265 274 240 171 154 146 146 143 121 112 143 133 54 35 76 120 125 133 141 142 142 145 146 144 144 147 146 148 155 160 163 163 160 157 155 151 150 149 150 150 151 151 149 147 146 146 144 143 143 144 147 150 149 148 146 142 141 139 137 136 135 136 139 134 129 128 122 117 118 122 125 129 136 139 140 141 145 146 149 161
143 102 205 189 163 175 225 246 252 231 263 266 272 251 247 253 241 249 239 235 221 158 142 154 164 132 135 137 102 61 67 109 121 128 137 142 144 145 148 148 145 146 146 145 149 155 160 163 165 164 161 157 154 154 153 153 150 149 148 148 148 147 147 146 145 146 147 149 152 153 154 152 150 146 143 141 139 139 139 139 136 130 128 123 117 116 123 127 129 137 141 140 142 148 152 157 164
103 5 173 163 162 198 231 234 246 218 252 272 278 267 264 238 232 236 238 240 189 153 138 151 142 131 139 134 105 81 113 127 127 132 140 144 148 147 146 146 144 145 145 147 151 154 158 161 165 165 161 158 155 155 156 156 151 148 148 148 150 152 151 149 147 147 148 150 154 156 157 156 155 151 146 143 142 143 140 140 139 136 132 126 120 116 124 129 130 137 141 143 149 157 163 167 171
152 42 170 185 181 204 226 227 229 256 269 286 279 268 276 245 228 233 232 220 171 146 144 149 126 130 130 123 108 117 134 138 134 136 144 146 148 146 142 143 143 143 144 148 151 153 157 160 162 162 159 155 155 158 159 159 154 150 150 150 152 156 153 149 148 146 146 149 151 151 151 150 151 149 145 141 142 143 139 139 138 138 136 126 119 121 128 130 129 134 140 144 149 156 165 170 174
186 142 182 199 204 210 223 243 247 289 283 293 308 342 334 261 233 236 218 194 159 143 154 175 144 134 126 126 125 133 143 145 139 140 146 146 148 147 143 142 142 141 142 147 149 150 156 159 159 162 163 158 157 164 162 163 162 155 153 154 157 159 155 150 148 144 143 145 145 143 142 141 143 145 142 141 142 141 138 136 135 134 131 121 117 123 128 130 131 132 133 137 143 153 163 167 168
198 154 174 189 238 189 161 252 269 299 283 183 338 336 334 304 296 264 201 154 143 144 152 166 151 137 116 130 131 139 149 152 145 144 146 146 149 148 143 142 141 141 142 148 150 151 157 160 161 164 170 169 167 170 171 173 171 163 159 161 163 160 156 152 147 142 143 143 142 141 139 136 137 141 141 141 142 140 138 136 135 133 127 120 116 118 123 127 128 127 123 119 127 145 160 160 159
194 167 190 188 38 154 161 205 249 251 194 116 22 317 328 21 339 278 141 128 123 129 123 128 147 130 113 134 144 155 158 157 150 146 147 145 148 146 142 140 139 142 143 149 152 153 157 160 162 163 167 172 172 170 172 176 174 168 165 166 164 161 158 154 148 144 144 143 143 143 139 136 135 139 140 142 142 139 138 136 134 133 129 122 115 113 118 124 122 122 119 108 104 118 145 155 154
187 145 168 174 125 176 201 225 252 196 148 91 45 316 338 34 356 98 100 111 99 63 112 118 132 74 151 164 172 171 161 155 153 149 146 142 143 142 140 140 140 142 142 146 149 152 157 159 161 163 165 168 170 170 172 179 182 177 172 169 166 162 159 155 150 148 148 147 148 146 140 137 136 137 137 137 137 134 132 129 130 130 128 121 115 113 115 119 119 120 119 110 98 98 125 147 151
146 126 143 189 173 188 196 200 223 174 148 128 16 326 15 43 22 63 11 91 116 68 70 103 341 345 178 181 159 158 155 152 152 147 141 139 140 139 139 141 141 142 143 144 148 153 157 160 162 165 166 167 169 172 176 182 186 181 174 171 169 164 160 155 151 151 151 150 150 151 147 142 139 139 137 136 132 128 126 124 125 126 125 122 117 116 115 117 119 121 121 116 102 93 113 137 147
137 178 195 201 194 193 184 189 193 151 80 225 4 357 28 42 51 87 54 80 109 82 37 44 348 345 165 148 141 147 149 150 151 146 141 143 142 142 142 144 145 146 146 147 152 155 158 161 165 167 168 168 171 175 178 180 182 180 174 171 169 165 160 153 152 155 153 153 155 156 153 148 145 145 144 140 131 126 127 124 122 120 121 123 122 122 121 121 122 123 125 121 112 100 108 130 142
179 184 210 218 182 176 185 192 189 167 342 340 354 1 23 28 92 130 95 78 90 84 59 59 57 68 99 121 135 141 146 149 152 150 148 150 150 150 149 150 151 151 151 153 156 157 158 163 167 170 169 170 173 176 176 177 179 177 173 169 167 164 158 154 157 160 158 160 163 160 156 153 151 149 148 144 136 132 133 128 123 118 116 120 123 127 130 131 129 128 130 125 120 112 108 124 136
186 151 222 217 177 182 197 198 193 211 308 328 335 2 6 352 155 178 160 115 116 98 73 82 90 98 112 127 134 139 148 151 157 158 156 158 158 157 155 156 156 155 155 155 157 159 161 165 168 169 169 170 172 173 172 174 175 173 171 167 164 162 159 161 164 164 165 167 167 163 161 158 154 150 148 146 143 142 141 137 131 124 119 119 120 126 135 143 144 142 140 130 122 116 113 121 126
181 183 232 205 199 242 219 210 224 234 283 315 324 96 353 335 193 220 169 142 160 158 139 140 138 139 136 138 139 144 151 155 162 163 162 164 163 161 159 159 160 159 158 155 158 162 164 166 167 166 166 168 169 169 168 170 172 171 170 166 164 163 165 170 169 168 170 171 171 170 167 161 156 152 151 151 151 151 149 144 138 134 127 123 120 121 133 150 160 158 149 136 125 115 115 122 119
159 203 223 147 176 240 230 211 222 234 248 287 315 321 334 15 166 199 163 153 197 210 191 183 171 162 153 148 149 152 154 159 168 170 167 168 166 164 163 161 160 161 160 159 161 164 165 165 166 165 168 169 167 168 166 166 170 170 170 169 167 167 173 175 172 172 174 178 180 179 173 165 161 159 159 157 158 160 156 152 147 144 135 126 121 117 128 146 167 173 156 140 129 115 114 124 123
161 205 204 136 159 228 259 236 205 217 232 254 308 329 339 23 259 179 174 176 186 221 214 204 175 165 162 157 156 160 162 166 174 175 173 172 170 167 165 162 158 160 161 162 163 162 163 166 166 165 172 171 164 165 164 165 169 170 173 174 173 176 182 179 175 177 180 184 186 184 178 174 171 167 166 163 164 167 165 162 157 152 144 134 123 113 120 133 152 169 164 151 133 116 112 121 127
207 205 195 199 186 225 260 265 190 182 227 269 286 329 351 328 322 176 204 241 325 313 241 192 172 168 165 159 160 166 169 172 177 180 179 176 175 172 166 164 160 162 164 164 164 161 161 165 165 165 171 170 165 165 163 167 171 172 176 179 182 184 185 183 181 185 191 192 191 191 187 185 182 175 173 170 170 170 171 168 161 157 152 143 132 118 116 125 136 142 155 155 134 117 110 111 122
230 207 214 216 193 223 239 231 232 188 230 262 316 308 286 225 277 171 212 272 327 304 204 166 162 164 165 164 168 170 172 176 179 183 183 179 178 173 167 165 164 164 165 165 164 162 163 163 162 166 168 167 170 171 170 175 178 178 181 186 190 189 187 188 189 194 202 201 199 199 196 195 191 186 181 178 177 174 174 173 169 167 161 156 149 125 114 124 130 127 140 143 130 119 107 101 109
223 212 214 198 192 230 244 252 261 247 240 237 211 271 272 198 185 183 198 22 8 110 145 149 154 160 168 173 173 172 174 177 180 184 185 179 172 166 164 165 162 165 165 164 163 162 164 165 164 167 168 171 175 177 179 182 184 185 187 190 192 192 190 193 199 202 207 208 208 208 206 205 201 196 191 189 185 177 175 178 184 184 174 172 163 134 120 124 122 127 137 138 132 123 106 97 100
210 204 205 216 234 261 255 257 257 259 246 168 197 251 280 171 196 190 146 70 114 140 141 147 154 162 171 177 178 177 179 181 183 184 183 174 162 158 163 165 161 164 165 163 164 163 168 170 169 172 173 177 179 180 184 186 187 189 192 196 194 195 197 200 206 209 211 214 214 214 214 212 209 206 205 203 196 187 182 187 194 195 188 180 170 156 143 139 139 141 145 146 141 133 115 102 98
176 185 216 233 273 300 257 261 255 285 253 189 210 253 66 340 238 203 132 127 150 145 148 154 158 168 172 177 183 183 186 186 184 183 180 168 153 153 162 165 164 164 163 165 167 169 175 174 173 176 179 180 180 181 187 188 189 194 198 203 199 203 210 208 214 219 219 220 221 221 221 220 219 217 217 212 206 202 200 207 207 200 192 184 178 172 166 161 160 154 155 156 150 144 130 114 102
157 177 235 250 294 278 234 264 261 247 247 195 196 178 92 120 246 227 145 147 160 151 153 161 164 171 174 180 185 186 192 190 187 181 149 98 77 86 146 164 164 164 165 168 170 173 177 178 178 179 182 184 184 185 188 189 193 199 203 206 206 212 218 216 221 227 224 222 226 229 228 228 226 221 220 218 217 225 231 230 217 201 197 194 191 186 181 171 162 156 157 158 154 150 140 127 115
149 159 260 280 325 264 214 259 258 203 228 159 163 173 142 181 191 147 151 155 160 158 160 166 169 175 179 182 185 188 191 184 180 150 106 99 105 98 55 163 164 165 167 170 174 178 178 180 182 182 183 188 192 191 190 192 196 201 206 210 214 218 222 222 229 234 231 228 234 237 234 230 228 228 232 225 212 228 239 234 223 212 209 207 206 199 190 174 158 155 154 156 156 149 139 128 124
165 127 289 289 313 251 191 77 131 184 208 150 174 225 211 202 184 145 160 162 160 162 168 173 175 181 183 183 184 185 181 165 144 120 119 140 154 155 158 177 178 171 169 174 178 182 183 182 182 183 186 190 195 194 193 196 197 202 208 213 216 221 227 226 232 241 238 235 242 249 248 242 239 241 246 240 213 226 238 235 229 223 217 211 210 203 190 175 159 158 161 160 157 152 142 127 122
142 141 159 319 248 207 181 141 159 179 181 159 194 237 229 218 179 160 170 169 166 170 175 180 181 183 187 184 181 176 168 150 131 119 129 149 156 163 167 174 199 193 176 179 183 185 189 187 183 184 187 192 197 198 199 199 196 201 207 212 216 220 229 226 233 250 254 254 254 259 263 265 263 254 255 256 225 229 239 240 236 230 224 216 205 190 175 168 164 169 171 167 167 167 161 143 136
57 185 176 156 225 223 295 217 198 206 79 155 205 226 241 250 151 160 172 175 176 179 179 183 185 185 190 186 181 175 160 145 138 127 135 157 166 175 176 178 198 204 188 184 187 186 189 189 186 185 186 191 197 201 201 202 206 212 216 220 222 216 221 232 245 259 272 281 282 273 269 275 280 272 268 261 225 227 228 225 231 232 227 214 190 163 161 165 168 178 180 174 172 173 173 164 162
50 250 194 169 197 233 303 173 226 253 98 172 222 236 236 271 121 164 171 178 181 185 184 185 187 188 191 190 184 175 158 147 150 145 147 165 177 184 189 187 195 202 193 187 188 188 187 186 187 187 187 190 197 204 208 214 219 222 224 225 230 227 232 251 261 264 271 290 307 304 294 293 289 289 287 236 222 227 207 204 221 227 222 207 196 165 159 177 179 185 188 179 168 164 161 153 163
165 258 175 182 209 214 250 175 204 278 164 197 213 225 229 268 93 170 174 180 184 187 187 185 189 191 194 196 192 185 177 167 167 167 166 172 179 186 193 194 197 201 197 193 191 188 184 182 184 187 187 193 202 209 213 217 218 216 218 223 228 231 240 254 271 281 281 303 320 325 336 340 311 310 328 248 240 241 217 208 222 230 229 219 223 212 192 199 196 197 195 186 177 159 145 147 175
168 174 162 178 222 215 259 242 125 111 209 215 184 214 235 224 134 175 179 184 188 189 187 186 191 193 193 199 202 200 200 194 184 181 177 175 180 188 194 196 199 201 199 197 193 186 182 181 181 184 190 198 204 208 210 211 209 209 209 209 211 217 233 241 240 268 304 329 332 333 346 357 1 58 50 269 254 261 252 243 245 244 249 242 231 230 217 210 206 202 195 188 180 159 146 159 191
147 155 161 177 223 237 252 253 232 185 224 228 202 214 230 212 173 182 184 186 192 192 187 190 194 192 191 200 208 208 209 209 198 190 183 181 186 193 197 197 199 202 201 195 189 185 183 183 181 183 195 202 202 202 204 203 197 199 202 195 192 198 201 178 154 156 154 150 132 3 4 13 27 65 65 166 212 250 266 261 259 248 253 248 227 223 216 211 202 191 190 189 173 153 146 162 195
126 130 161 202 242 258 251 242 298 262 238 240 212 220 232 218 183 186 184 186 195 195 191 196 199 194 195 204 211 211 213 209 186 183 185 188 193 195 197 200 202 204 205 198 190 189 188 190 187 185 195 201 201 200 199 196 189 187 189 185 184 183 175 153 138 139 131 126 131 125 110 87 68 71 63 94 160 167 248 257 253 241 242 234 219 217 206 190 180 177 178 181 169 154 150 162 184
123 154 199 231 224 252 262 147 328 296 240 244 154 218 233 244 204 187 183 192 199 200 198 199 200 199 203 210 214 214 215 203 168 172 183 188 191 192 195 201 204 204 205 203 198 197 195 193 192 191 196 200 202 202 196 194 193 190 186 181 177 168 155 143 132 129 121 116 118 119 119 110 104 93 83 97 113 104 165 233 233 228 226 223 228 227 201 172 170 172 167 160 161 158 156 163 165
128 156 230 235 207 256 279 109 7 33 221 254 134 202 236 32 6 184 188 201 205 207 208 206 201 202 211 213 213 212 213 210 196 184 185 190 188 187 192 199 205 205 204 204 203 204 200 196 198 200 200 200 201 201 196 198 199 195 186 173 168 157 146 142 134 129 123 121 118 113 114 112 113 107 99 105 106 116 189 229 221 218 217 223 235 230 199 181 175 174 171 158 156 155 147 158 163
174 165 216 234 165 230 215 119 33 38 294 267 145 148 47 55 119 171 199 202 179 196 202 202 206 211 219 219 214 211 212 215 211 197 187 192 189 186 190 196 201 203 203 203 204 205 201 198 202 205 205 203 201 200 200 203 199 191 180 165 160 150 143 142 136 134 131 130 126 116 113 115 118 117 110 107 103 111 164 197 192 205 221 220 226 226 203 195 184 168 171 164 159 158 146 151 166
212 209 216 227 208 212 228 87 67 232 25 70 131 140 115 87 136 179 203 179 160 156 173 192 206 218 227 224 218 216 218 219 216 209 194 190 192 190 192 195 197 200 201 203 204 203 201 199 203 206 206 204 201 200 202 204 196 182 168 154 148 139 140 144 141 140 141 139 135 126 123 124 127 130 122 107 89 70 65 108 155 178 210 209 198 210 194 187 185 159 169 173 168 165 151 146 156
217 220 216 221 204 199 250 276 158 187 136 67 351 179 155 80 133 183 186 205 212 188 194 208 201 209 222 224 222 219 222 224 220 216 199 187 191 190 192 195 196 198 202 205 205 203 202 201 202 205 205 204 201 202 206 206 195 182 168 157 150 143 142 150 150 147 147 147 144 139 137 132 132 136 129 109 83 66 71 96 112 171 199 207 194 204 201 188 178 159 165 172 177 174 156 152 157
203 213 204 202 177 142 235 222 181 198 128 56 329 263 158 105 109 173 183 210 217 209 215 216 201 205 216 222 223 219 219 221 220 216 200 187 188 188 192 195 197 200 204 205 203 202 203 202 203 204 204 204 202 204 207 203 195 188 181 174 167 158 151 154 154 148 147 149 144 140 139 133 130 134 129 110 88 80 81 97 111 126 105 102 156 165 173 171 172 183 176 160 177 186 174 169 165
185 175 168 172 186 207 203 181 134 19 57 104 345 336 161 144 124 173 202 200 215 226 225 219 208 206 212 216 215 213 213 212 212 209 197 190 190 189 191 192 198 205 206 204 201 201 203 204 207 207 205 206 205 205 205 201 196 193 189 186 179 168 157 150 146 144 144 143 138 138 137 129 124 125 121 112 105 90 74 74 97 123 93 83 120 126 134 142 145 167 168 155 167 176 176 177 172
256 128 140 150 167 179 167 153 109 51 241 182 57 359 187 154 118 181 198 190 204 222 226 223 217 208 208 213 211 206 207 206 206 203 192 190 190 188 186 187 198 207 207 204 200 200 204 207 209 208 206 204 202 202 200 198 197 196 193 189 177 164 153 145 140 139 140 139 137 140 140 131 123 120 112 113 118 100 79 66 66 115 117 100 116 115 118 129 132 144 147 149 159 165 168 171 175
143 131 104 91 88 81 81 97 111 91 237 191 36 349 215 169 150 175 175 174 201 241 236 223 224 221 212 210 210 206 201 200 204 201 190 184 184 181 178 182 195 205 207 202 198 199 202 206 207 204 202 199 197 197 196 197 198 197 195 188 170 157 153 152 145 141 142 141 141 142 140 133 125 121 113 113 121 109 96 75 62 109 138 121 118 111 108 115 121 133 133 138 147 156 165 164 164
149 139 97 88 68 41 52 36 56 178 212 169 8 338 280 187 185 182 169 111 333 309 305 289 273 255 229 214 210 206 201 199 197 189 173 163 165 169 170 174 187 198 201 197 196 198 200 201 201 199 197 195 194 194 196 197 196 195 195 186 171 163 164 163 155 151 152 149 148 146 141 135 126 120 117 119 125 115 102 84 74 117 138 132 124 114 108 107 107 112 116 124 133 138 145 142 142
152 140 114 125 72 31 88 33 320 203 193 105 21 330 271 209 171 138 295 324 323 288 292 308 312 298 262 227 213 205 202 196 185 173 157 150 154 164 171 171 176 188 192 191 195 196 196 198 195 190 191 193 193 194 195 196 194 195 196 189 179 173 174 173 165 161 160 157 157 153 146 137 127 123 126 127 127 115 99 92 98 132 144 141 133 120 113 111 107 105 106 112 119 122 125 125 129
154 128 139 161 143 149 195 206 206 221 216 80 37 302 236 237 267 300 309 332 335 303 291 295 296 291 277 247 218 206 195 183 174 163 154 157 164 172 179 176 175 185 189 191 194 193 194 194 190 190 191 188 182 176 174 175 180 189 191 190 188 181 178 178 168 161 161 165 168 164 156 142 132 136 140 136 132 121 107 101 115 140 147 145 137 124 119 118 113 109 108 109 111 116 119 119 121
183 159 161 175 153 153 193 184 218 253 229 89 40 261 191 159 278 284 303 333 336 323 309 297 286 280 282 278 213 183 166 165 165 155 156 162 161 168 181 182 181 183 185 187 190 192 192 190 193 192 172 139 131 133 141 149 157 171 191 200 196 187 188 184 164 145 150 173 181 183 176 150 138 148 150 141 131 118 105 108 120 130 133 134 133 126 125 126 121 118 116 112 111 116 119 118 117
176 148 155 176 168 175 207 200 199 214 170 91 137 201 184 147 131 300 306 324 336 348 345 336 328 299 295 16 129 136 125 122 123 115 110 100 87 72 42 14 355 331 210 188 186 190 188 190 198 169 116 107 121 139 157 164 163 172 194 199 193 202 210 191 161 133 155 198 194 195 189 154 143 152 153 141 125 102 91 106 118 121 124 125 126 129 132 133 132 128 125 120 120 122 123 122 122
127 71 147 184 189 157 141 189 169 187 154 130 183 215 298 117 93 318 302 314 354 16 12 7 22 48 76 88 99 108 110 110 108 102 90 84 86 88 85 59 346 319 301 242 191 190 191 195 169 114 105 121 171 196 193 183 178 187 198 192 184 202 212 204 208 205 205 203 196 198 192 158 145 151 151 141 121 92 86 97 104 106 106 100 105 131 145 148 145 138 133 130 128 130 129 126 127
134 174 177 178 71 118 117 115 52 9 202 181 145 209 219 164 156 225 217 161 48 35 26 25 34 64 83 89 99 104 109 114 112 110 105 93 84 84 99 114 181 276 281 270 213 197 207 198 132 113 117 188 216 209 194 182 190 202 208 201 190 196 203 215 237 225 205 199 196 199 194 164 147 149 151 145 126 97 92 94 91 88 81 72 72 88 126 149 152 145 140 135 132 131 129 125 125
143 179 166 136 71 78 113 148 98 133 208 189 88 104 206 184 162 142 174 91 56 49 55 54 50 77 90 95 111 118 123 129 126 124 122 110 101 87 59 69 87 240 254 258 242 216 216 196 145 138 173 223 213 194 184 195 212 211 208 203 196 197 198 210 229 223 208 204 196 191 193 179 152 146 152 153 142 120 110 103 93 84 76 72 70 74 87 106 125 133 131 128 127 125 122 122 124
40 148 135 135 187 172 154 161 157 179 197 176 136 192 249 203 138 4 341 350 4 18 53 65 61 83 95 101 119 127 127 125 119 117 114 102 106 110 83 74 81 92 61 69 177 211 207 195 168 164 187 207 197 190 197 211 219 212 205 201 200 205 201 204 221 220 209 206 192 179 186 186 163 150 152 158 159 147 137 128 110 93 80 75 70 71 79 85 96 112 119 118 120 122 119 118 120
52 114 113 18 284 175 172 154 168 188 189 161 152 193 220 175 359 327 312 328 343 350 39 69 73 86 91 84 84 76 77 83 83 96 93 74 80 94 95 92 89 83 75 88 122 165 184 189 187 183 186 190 191 195 202 210 214 211 207 204 207 214 209 206 213 214 212 212 200 183 186 187 171 159 156 159 166 164 156 151 139 123 104 90 80 78 83 86 91 100 111 117 121 125 122 119 120
117 153 156 143 66 111 175 98 43 199 177 159 172 194 181 84 359 308 297 309 322 324 33 84 78 76 67 48 42 40 56 76 78 79 78 67 67 82 92 94 97 104 110 122 135 148 164 175 187 193 193 192 194 199 204 210 214 211 207 206 210 211 208 207 209 212 216 217 210 197 194 190 175 167 168 168 174 175 171 167 160 153 142 128 118 107 102 99 100 103 109 118 126 130 131 129 129
175 179 177 157 129 147 168 164 163 333 160 164 182 190 158 50 352 313 303 304 308 303 150 99 76 70 66 50 44 43 46 58 70 77 80 78 69 63 72 83 98 110 116 129 138 142 151 161 183 195 198 200 202 205 206 208 211 210 206 207 211 210 206 206 210 213 217 220 217 208 202 196 186 180 179 178 180 184 183 179 173 172 168 161 157 152 139 126 122 120 119 123 132 139 140 143 145
Height
781 782 782 783 783 784 786 785 793 797 797 801 799 794 788 785 785 784 781 776 777 777 772 771 770 771 773 775 775 775 777 778 783 792 789 778 776 779 780 782 784 787 791 794 797 799 801 802 803 805 806 807 809 810 811 812 813 814 816 818 819 820 820 821 821 822 823 824 825 826 826 827 827 828 828 829 829 829 830 830 831 832 832 833 833 834 835 836 836 837 837 838 838 839 840 840 841
781 782 782 783 783 784 787 787 797 802 800 803 796 790 787 785 786 782 779 777 777 775 771 770 770 772 772 771 771 775 778 777 776 779 778 777 779 781 783 785 787 790 792 795 797 799 801 802 804 805 806 808 809 810 812 813 814 816 818 819 820 821 821 822 822 823 824 825 826 827 827 828 828 829 829 830 830 830 831 831 832 832 833 833 834 834 835 836 837 837 838 838 839 840 840 841 841
781 782 781 782 783 784 788 789 798 805 803 801 789 786 788 783 782 779 777 775 774 772 771 770 770 773 773 775 775 778 780 777 776 777 779 779 780 782 785 786 788 791 792 795 796 798 800 802 804 805 807 808 809 811 812 814 816 817 819 820 821 822 822 822 823 824 825 826 827 828 828 829 829 829 830 830 831 831 831 832 833 833 833 834 834 835 835 836 837 838 839 839 840 840 841 841 842
780 781 782 781 784 786 789 793 799 802 800 798 787 784 786 780 778 777 774 773 771 770 771 771 774 774 774 780 779 779 781 778 777 778 779 780 781 783 785 787 789 791 793 795 797 799 801 803 804 806 807 809 810 811 812 814 816 817 819 820 822 823 823 823 824 825 826 827 828 828 829 830 830 830 831 831 831 832 832 833 833 834 834 835 835 836 836 836 837 838 839 840 840 841 841 842 842
780 781 782 780 785 786 791 799 803 801 791 790 785 782 784 777 776 776 773 771 769 770 771 772 775 775 775 780 780 782 783 778 777 777 779 781 782 784 786 788 790 792 793 795 797 799 802 804 805 806 808 809 811 812 812 814 815 817 818 820 822 823 824 824 825 826 827 828 829 830 830 830 831 831 831 832 832 833 833 834 834 835 835 835 836 837 837 837 838 838 839 840 841 841 842 842 843
780 781 782 781 785 785 791 800 802 796 782 782 781 779 781 775 776 775 772 769 767 769 769 771 774 775 779 780 778 781 781 779 778 778 780 781 783 785 786 788 790 792 793 795 797 799 802 804 805 806 808 810 811 813 814 814 815 817 818 819 821 823 824 825 825 826 827 828 830 830 831 831 832 832 832 833 833 834 834 834 835 835 836 836 837 837 838 839 839 839 840 840 841 842 842 843 843
779 780 783 783 786 787 793 797 793 789 780 781 780 777 778 775 776 774 773 771 768 769 768 770 769 773 782 780 779 780 779 778 777 779 780 782 784 785 787 788 790 792 793 795 797 800 802 803 804 805 807 809 811 813 815 816 817 817 818 819 821 823 824 825 826 826 828 829 830 831 831 832 832 833 833 834 834 835 835 836 836 836 837 837 837 838 839 840 840 840 841 841 842 842 843 843 844
778 781 784 785 791 793 796 796 791 788 784 782 780 777 776 774 774 774 774 772 770 770 769 770 766 774 783 779 781 781 779 779 777 780 781 782 784 785 787 789 790 792 794 796 798 800 801 803 804 806 806 808 810 812 814 816 817 818 819 820 821 823 824 825 826 827 828 829 830 831 832 832 833 833 834 834 835 835 836 837 837 837 838 838 838 839 840 840 841 841 841 842 842 843 844 844 844
778 781 785 787 793 797 797 796 790 789 787 781 778 775 774 773 772 772 772 771 770 770 770 770 766 775 782 780 783 782 779 780 779 781 782 783 785 786 788 789 790 792 794 796 798 800 801 803 804 806 807 808 810 812 814 815 816 818 820 821 822 824 825 825 826 827 828 829 830 831 832 832 833 834 834 835 836 836 837 837 838 839 839 839 839 840 840 841 841 842 842 843 843 844 845 845 845
780 781 785 788 792 798 798 793 790 789 785 779 776 772 770 772 771 770 770 769 768 769 771 769 768 775 779 782 784 782 781 781 780 782 783 784 786 787 789 790 791 792 794 796 798 800 801 803 804 806 808 810 812 813 815 816 816 818 820 821 822 824 825 825 825 827 828 829 830 831 832 833 834 834 835 836 837 837 838 838 839 839 840 840 840 841 841 841 842 842 843 844 844 845 845 846 846
782 783 784 789 793 796 793 789 789 787 782 779 775 769 768 770 770 770 768 768 766 770 771 769 773 774 777 783 784 782 782 782 781 782 784 785 786 788 789 791 792 793 795 797 799 801 803 804 806 807 808 811 813 815 817 818 817 817 819 821 822 824 824 825 825 827 828 829 831 832 833 834 835 835 836 837 837 838 838 839 839 840 840 841 841 842 842 842 842 843 843 844 845 845 846 846 847
782 785 785 790 793 791 791 789 788 784 779 778 773 766 767 768 769 769 766 768 767 770 771 769 771 771 778 785 783 783 782 783 782 783 784 785 787 788 790 792 793 795 796 798 801 803 805 807 808 809 810 811 814 815 817 819 819 818 819 821 823 824 824 825 826 827 828 830 831 833 834 835 836 836 837 837 838 839 839 840 840 841 841 841 842 842 843 843 843 843 844 845 845 846 846 846 847
780 785 784 789 793 791 794 791 787 785 779 775 772 767 767 767 769 766 764 767 768 771 770 766 766 768 779 783 782 783 782 783 783 783 785 785 787 789 790 792 794 795 797 799 800 802 805 807 808 809 811 812 813 814 817 820 820 819 819 820 822 824 825 826 826 827 829 830 832 833 834 835 836 837 837 838 839 839 840 840 841 841 841 842 843 843 843 844 844 844 845 845 846 846 846 847 847
778 783 781 789 798 794 792 789 786 786 777 772 773 769 766 767 768 765 764 768 770 769 767 764 764 770 779 783 785 784 782 783 783 784 785 786 788 789 791 793 794 796 797 799 800 803 805 807 808 809 811 812 812 813 816 820 821 820 820 821 822 824 825 826 827 828 829 830 832 834 835 836 837 837 838 839 839 839 840 841 841 842 842 843 843 844 844 844 845 845 845 846 846 846 846 847 848
776 781 781 788 798 795 790 788 785 783 776 772 773 770 767 767 765 764 764 769 771 766 764 764 764 770 776 779 783 780 779 782 782 784 785 787 789 790 792 793 795 796 798 800 801 804 805 807 808 810 811 812 812 813 815 819 821 821 821 822 823 824 825 826 827 829 830 831 833 834 835 836 837 838 839 839 839 840 840 841 842 842 842 843 843 844 844 845 845 845 846 846 846 847 847 847 848
776 779 783 788 795 794 788 788 787 783 775 771 773 769 768 767 764 766 765 764 769 767 766 769 767 769 770 770 773 774 778 781 782 784 785 787 789 791 793 794 797 798 799 801 803 804 805 807 808 810 811 812 813 814 815 818 820 820 820 822 824 825 826 827 828 829 831 832 834 835 836 837 837 838 839 840 840 840 841 841 842 842 842 843 844 844 845 845 846 846 846 847 847 847 847 848 848
775 778 785 789 793 791 785 785 784 779 772 770 772 769 769 769 766 766 763 762 769 771 770 772 769 768 768 767 769 772 777 780 782 784 785 788 789 792 794 795 797 798 800 801 803 805 807 808 809 810 811 812 813 815 816 818 820 820 821 822 824 826 827 827 829 830 832 833 835 836 836 837 838 839 840 840 840 841 841 842 842 842 843 843 844 845 845 846 846 846 847 847 847 847 847 848 849
776 782 786 788 790 785 779 779 776 774 772 770 771 771 771 770 768 766 765 768 772 774 773 772 771 769 768 769 771 774 778 780 782 783 784 786 788 791 793 795 797 798 800 802 804 806 807 809 810 811 812 813 814 815 817 819 820 821 822 824 825 827 827 828 829 831 833 834 835 836 837 837 838 839 840 840 841 842 842 842 843 843 843 843 844 845 845 846 847 847 847 847 847 848 848 848 849
778 785 787 785 785 778 774 774 773 773 772 770 771 772 771 769 768 766 768 774 773 775 777 774 774 773 771 772 774 776 778 780 782 783 784 785 787 789 792 794 796 798 800 802 804 806 807 809 811 812 813 814 815 816 818 820 821 823 824 825 826 827 828 829 830 832 833 834 835 836 837 837 838 839 840 840 841 842 842 843 843 843 843 843 844 844 845 846 847 847 847 847 848 848 848 849 850
778 783 784 782 779 775 774 774 772 771 771 770 770 771 770 767 767 766 768 774 773 775 777 776 777 776 775 775 775 777 779 780 782 783 784 786 787 789 791 793 795 798 800 802 803 805 806 808 810 813 814 815 816 817 819 820 822 824 825 826 827 828 828 829 830 832 833 834 835 836 836 837 838 839 839 840 841 842 842 843 843 843 843 843 843 844 845 846 846 847 847 847 848 848 849 850 850
778 779 780 778 778 776 771 770 771 771 771 771 770 771 769 766 767 767 768 773 773 771 770 771 773 773 774 775 775 777 778 780 782 783 784 786 788 789 791 794 796 798 800 801 803 805 807 808 810 811 814 815 817 818 819 820 822 823 825 826 828 828 829 830 831 832 833 834 835 835 836 837 838 838 839 839 841 842 842 843 843 843 843 843 843 844 845 846 846 847 847 848 848 849 849 850 851
777 777 776 775 778 776 767 767 770 769 770 770 770 770 768 767 767 767 767 769 768 766 765 766 766 767 770 771 774 776 777 779 781 782 783 785 787 789 791 794 796 798 800 801 803 805 807 809 810 811 813 815 817 818 819 820 821 823 824 826 827 828 829 830 831 832 833 834 834 835 836 836 837 838 839 839 840 841 842 842 842 843 843 843 843 843 844 845 846 847 847 848 848 849 850 850 851
775 776 777 775 776 774 767 766 767 768 769 769 769 768 768 768 768 768 768 766 764 763 763 763 764 766 768 770 772 774 776 778 779 780 781 783 785 787 790 792 795 797 799 801 803 806 807 809 810 811 814 816 817 818 819 820 821 823 824 826 827 828 829 830 831 832 833 834 834 835 835 836 837 837 838 839 840 840 841 841 842 842 843 843 842 843 844 845 846 847 847 848 849 849 850 851 851
775 776 775 774 774 771 767 766 766 767 768 767 768 767 767 768 769 770 768 765 764 762 761 761 763 766 769 771 772 773 775 776 778 779 781 782 784 786 789 792 794 797 799 801 804 806 808 809 810 812 814 816 817 818 819 821 822 823 825 826 827 827 828 829 830 831 832 833 834 834 835 835 836 837 838 838 839 839 840 840 841 841 842 842 842 843 843 845 846 847 848 848 849 850 850 851 851
775 774 772 771 772 769 766 767 766 766 766 767 768 767 766 766 767 768 767 765 764 762 760 761 764 767 770 772 773 775 776 777 778 779 781 782 784 786 789 792 795 798 800 802 804 806 808 809 810 812 813 815 816 817 819 821 822 823 824 825 826 827 828 829 830 831 832 833 833 834 834 835 835 836 837 837 838 838 839 839 840 841 841 841 842 842 843 844 846 846 847 848 849 849 850 851 851
771 770 770 769 769 766 765 766 763 764 765 766 767 765 765 766 766 765 765 766 765 763 762 763 765 768 771 772 774 775 776 777 777 779 780 782 784 787 791 794 796 799 801 803 804 807 808 809 810 812 813 814 815 816 818 820 822 823 824 825 826 827 828 829 830 831 832 832 833 833 833 834 834 835 836 837 838 838 839 839 839 839 840 840 841 841 843 844 845 845 846 847 848 849 850 851 851
767 768 769 767 767 766 765 764 763 764 763 763 764 764 766 767 766 765 765 766 765 765 765 765 767 769 771 772 774 775 776 777 778 779 781 784 787 790 792 794 797 799 801 803 805 806 808 809 810 812 813 814 815 817 818 820 821 822 823 824 826 827 828 829 830 831 831 832 833 833 833 833 834 834 835 837 838 838 839 839 838 838 839 839 840 840 841 842 843 844 845 846 847 848 849 850 851
767 768 767 767 767 765 764 763 763 764 761 760 762 764 768 768 766 763 764 765 765 766 767 767 769 771 772 773 774 775 777 778 779 782 785 790 794 796 796 795 796 798 800 802 804 806 807 809 810 811 813 814 815 817 819 820 821 822 823 825 826 827 828 829 830 830 831 832 832 832 832 832 832 833 835 836 838 839 839 838 838 839 839 839 839 840 841 842 843 844 844 845 846 847 848 849 851
767 767 767 766 765 763 761 761 763 764 760 758 761 766 769 769 767 765 765 765 765 768 768 769 770 771 772 773 774 775 777 779 781 784 788 791 793 797 800 800 798 798 800 802 803 805 807 808 809 811 812 814 815 817 818 819 821 823 824 825 826 827 828 829 830 830 830 832 832 831 831 831 831 832 834 835 837 839 837 837 839 839 839 839 839 840 841 842 843 844 845 845 846 847 848 849 850
767 769 769 768 768 764 761 763 765 763 760 758 760 769 768 763 764 766 765 764 766 769 769 770 771 772 773 774 775 776 777 779 782 785 786 788 789 792 797 802 803 800 800 802 803 805 806 807 808 810 812 813 815 816 817 819 821 822 824 825 826 827 828 829 829 829 830 831 831 830 830 830 831 832 833 834 836 837 836 837 839 839 838 838 839 840 840 841 842 844 845 846 847 847 848 848 849
769 771 772 776 775 766 759 763 764 761 762 759 759 770 766 757 762 765 764 764 766 769 769 770 771 773 774 774 776 776 778 780 783 785 786 788 791 792 793 798 804 803 800 801 803 804 805 806 807 809 811 813 815 816 817 819 821 822 823 824 825 826 827 828 829 829 829 830 831 831 830 830 831 832 833 835 836 835 836 838 838 838 838 838 839 839 840 840 841 843 844 845 846 847 847 848 849
773 774 777 782 778 768 760 761 762 758 760 760 760 769 765 756 760 763 764 765 767 769 769 770 772 774 774 775 776 777 779 781 783 785 787 789 791 793 794 794 800 802 800 800 802 803 804 805 807 808 810 812 814 815 817 819 820 821 823 824 825 826 827 828 829 829 829 829 830 830 831 830 831 832 833 836 836 833 835 837 837 838 838 838 839 839 840 840 841 842 843 844 845 847 847 848 848
777 777 777 782 779 772 765 760 760 758 759 760 761 767 765 759 762 763 764 765 767 769 769 770 772 774 774 775 776 777 779 781 783 785 786 789 791 793 795 795 797 800 799 799 800 801 803 805 806 808 810 811 813 815 816 818 820 821 823 824 825 826 827 828 829 829 829 829 829 829 830 830 831 832 833 836 834 833 835 836 836 837 837 838 838 839 839 840 841 842 843 844 845 846 847 848 848
778 778 777 782 781 775 768 761 761 762 761 761 761 765 761 759 765 764 764 765 767 769 769 770 772 773 774 775 776 777 779 781 782 784 785 788 790 792 794 795 797 798 798 798 799 801 802 804 806 808 810 811 812 814 816 818 820 821 823 824 825 826 827 828 828 829 829 829 828 829 829 830 831 831 832 833 833 833 835 835 835 836 836 837 837 838 839 839 841 842 843 844 845 846 847 848 848
776 777 775 780 780 778 774 765 762 762 762 762 765 766 760 759 766 765 763 765 767 769 769 770 772 773 775 775 777 778 778 780 782 783 785 787 789 791 793 794 795 796 797 797 799 801 802 803 805 807 809 810 812 814 816 818 820 821 823 824 826 826 827 828 828 829 829 829 829 828 828 829 830 831 832 832 832 833 833 834 834 835 835 836 836 837 838 839 841 842 843 844 844 846 847 847 847
770 773 773 776 775 775 772 765 763 763 763 763 764 764 758 757 765 765 763 764 767 768 769 769 771 773 775 776 777 777 779 780 781 783 785 787 789 791 792 794 795 795 796 797 799 800 802 803 805 807 808 810 812 814 816 818 819 822 823 825 826 826 827 827 828 828 829 829 829 829 829 829 829 830 831 832 833 833 833 833 834 835 835 836 836 837 838 839 840 842 843 843 844 846 847 847 847
771 774 775 776 776 771 764 764 766 764 763 761 763 764 758 758 764 764 763 764 767 768 769 770 770 771 773 775 776 777 778 780 781 783 785 787 788 790 791 793 793 794 795 796 798 800 801 802 804 806 807 809 811 813 815 817 819 821 823 824 825 826 826 827 828 828 829 829 829 829 829 829 829 830 830 831 832 833 833 834 834 835 835 836 836 836 837 838 840 841 842 843 844 846 847 847 847
773 774 775 776 778 768 760 765 768 766 764 761 766 768 763 765 767 765 764 766 767 767 769 770 770 772 772 773 775 777 778 779 781 783 784 786 787 789 791 791 792 793 794 795 797 799 801 803 804 806 807 809 811 813 814 816 818 820 822 823 824 825 826 827 828 828 829 829 829 830 830 830 830 830 831 831 831 832 833 834 835 835 835 836 836 836 837 838 839 840 842 843 844 845 846 847 848
774 776 776 773 773 768 762 767 769 768 765 761 767 769 766 770 770 766 765 765 767 767 767 769 770 772 773 772 775 777 778 779 781 782 784 785 786 788 790 791 791 792 793 795 797 799 801 803 804 806 807 809 811 812 814 816 818 820 821 823 824 825 826 827 828 829 829 830 830 831 831 831 831 831 831 831 831 832 833 834 834 835 835 835 835 836 836 837 838 840 841 842 843 844 846 847 848
774 774 773 769 771 770 763 765 768 769 770 766 766 767 768 771 771 769 768 767 768 768 768 769 769 771 772 772 773 775 778 779 780 782 783 784 785 787 788 789 791 791 793 794 796 798 800 802 804 805 807 809 811 812 814 816 817 819 821 823 824 825 826 827 828 829 830 831 831 832 832 832 832 832 832 832 833 833 833 834 834 834 835 835 836 836 836 837 838 839 840 841 842 843 845 847 848
775 774 770 765 766 765 761 764 768 768 770 768 764 766 769 770 772 774 771 770 771 770 770 771 771 771 770 771 773 774 776 777 779 780 782 784 784 785 787 788 790 790 791 793 795 797 799 801 803 805 807 809 810 812 813 815 817 819 820 822 824 825 826 827 828 829 831 832 832 832 833 833 833 833 834 834 834 834 834 834 834 835 835 835 836 836 837 837 837 838 839 840 842 843 844 846 848
772 770 764 760 760 760 762 765 767 766 768 770 769 770 770 768 770 773 772 773 774 772 772 772 771 772 771 772 773 773 775 776 777 778 780 782 783 785 786 787 788 789 790 792 794 796 798 800 802 804 806 808 810 811 813 814 816 817 819 820 822 824 826 827 828 829 830 832 832 833 833 833 834 834 835 835 835 835 835 834 834 835 835 835 836 836 837 837 837 838 839 839 841 842 843 845 847
768 761 757 761 762 761 763 763 762 765 768 774 774 770 770 768 766 771 773 773 773 772 772 770 769 770 770 770 771 772 774 775 776 777 778 780 782 783 785 786 787 788 790 791 793 796 797 799 801 803 805 806 808 810 812 813 815 816 818 819 821 822 824 826 827 828 830 831 832 833 833 833 834 834 835 835 835 835 835 835 835 835 835 835 835 836 837 837 837 838 838 839 840 841 842 843 845
760 757 757 763 763 762 763 760 760 766 770 774 774 768 768 770 769 774 776 773 772 771 769 768 768 768 767 767 767 769 770 771 773 775 776 778 780 782 783 785 786 787 789 791 793 795 797 799 800 802 803 805 807 809 811 813 815 816 818 819 820 821 823 825 827 828 829 831 832 833 833 833 834 834 835 835 836 836 836 836 835 835 835 835 835 836 837 837 837 838 838 839 839 840 841 842 843
757 761 762 762 763 762 762 759 762 772 772 767 770 770 771 772 769 772 774 770 769 768 765 765 765 765 767 766 765 766 767 768 770 772 774 776 779 781 783 784 786 788 789 791 792 794 796 798 799 801 803 805 807 809 811 813 815 817 818 819 820 822 824 826 827 829 830 831 832 833 834 834 834 834 835 836 836 836 836 836 836 835 835 835 835 836 836 837 837 838 838 839 839 840 841 842 842
759 765 763 763 766 766 764 762 761 770 772 768 774 778 774 772 767 765 767 764 762 763 761 762 762 762 763 764 764 765 766 767 768 770 773 776 779 781 783 784 786 788 790 791 792 794 795 797 799 802 804 806 808 810 812 814 816 818 819 820 821 823 825 826 828 829 830 832 833 834 834 834 834 835 835 835 836 836 836 837 836 836 836 836 836 836 836 837 837 838 838 839 839 840 840 841 842
762 760 758 761 765 764 765 767 765 770 776 775 783 786 778 774 769 764 766 765 766 766 762 761 763 763 762 763 763 764 764 766 767 769 773 776 779 781 782 784 785 787 789 791 792 793 794 797 799 801 804 806 809 811 813 815 817 820 821 821 822 823 825 825 827 828 830 832 833 834 834 834 834 835 835 835 836 836 837 837 837 837 837 837 837 837 838 838 838 838 839 839 839 840 840 841 841
761 754 755 762 767 767 769 772 771 778 782 780 788 790 780 774 770 766 766 768 772 772 767 764 765 764 763 762 762 762 763 765 767 770 773 776 778 780 781 782 783 785 787 789 790 792 794 795 798 801 804 807 809 811 814 816 818 820 821 822 822 823 824 825 826 827 829 831 833 834 834 834 834 835 835 836 836 837 837 837 837 838 838 838 838 839 839 839 839 839 839 839 840 840 840 841 841
759 755 759 767 776 780 781 781 781 782 780 783 791 788 778 773 770 770 770 769 771 773 771 770 768 765 763 762 762 762 764 765 768 770 772 774 776 777 778 779 780 782 784 786 788 790 792 795 797 801 804 807 810 813 815 817 819 821 823 823 823 824 824 825 826 827 829 831 833 834 834 834 834 835 836 836 837 837 837 838 838 838 839 839 840 840 840 840 840 841 841 841 841 841 841 842 842
757 756 760 768 780 792 796 796 797 790 779 784 791 785 778 776 772 772 773 771 772 772 771 771 770 767 764 763 762 763 765 767 768 770 772 773 774 776 778 780 780 781 782 784 787 789 791 794 796 800 804 808 811 813 816 817 819 822 823 823 824 824 824 825 825 826 828 831 833 834 834 834 834 835 836 836 837 837 838 838 839 840 840 841 841 841 841 841 842 842 842 842 842 842 843 843 843
758 756 756 762 770 781 789 788 787 784 780 784 788 782 778 775 773 772 772 772 772 771 770 769 769 767 765 764 763 764 767 769 771 773 775 776 777 780 783 786 788 788 786 786 787 789 791 793 797 801 805 809 812 814 815 815 817 818 819 821 823 825 826 825 824 825 827 830 832 833 834 834 834 835 836 836 837 837 838 839 839 840 841 842 842 843 843 843 843 843 843 843 843 844 844 844 845
764 761 757 760 758 761 781 791 787 783 782 784 786 782 777 775 775 775 775 775 772 770 770 769 769 767 765 765 766 768 769 771 773 775 777 778 779 781 782 788 795 797 795 792 789 790 792 794 798 802 806 810 812 812 812 812 814 814 814 816 820 822 824 824 824 825 827 828 831 832 833 833 833 835 836 837 837 838 838 839 840 841 842 843 843 844 844 844 844 844 844 845 845 845 845 845 846
761 762 757 761 756 756 777 796 799 793 785 786 789 784 777 776 777 776 775 776 775 774 774 773 772 770 768 769 770 770 771 773 775 776 778 780 781 783 783 785 792 798 800 796 790 791 793 795 799 803 807 809 808 808 811 813 815 814 813 814 816 819 821 822 823 825 826 828 829 831 833 833 833 834 836 836 837 838 839 839 840 841 842 843 844 844 845 845 845 846 846 846 846 846 846 846 847
754 757 753 758 762 761 768 782 795 795 786 786 792 789 781 776 775 774 773 775 776 778 777 776 775 772 771 773 771 771 772 773 775 776 776 777 779 785 788 787 790 797 798 794 791 791 793 795 799 801 804 805 805 808 811 812 813 812 812 813 815 818 819 821 823 824 826 827 829 830 831 833 833 834 835 836 838 838 839 840 841 842 842 843 844 844 845 846 846 847 847 848 848 848 848 848 848
747 747 747 754 762 765 769 778 786 789 791 791 792 794 787 775 775 777 775 775 776 777 777 776 777 775 775 775 773 772 773 774 777 778 778 778 779 784 788 789 790 794 794 791 791 792 792 795 798 799 801 803 805 807 807 808 809 810 812 813 814 817 818 820 822 823 825 826 827 828 830 832 832 833 835 836 838 839 840 841 842 843 843 844 845 845 846 847 847 848 848 849 850 850 850 850 850
749 748 751 756 759 762 768 773 772 774 789 796 790 790 783 776 784 788 781 779 779 779 779 779 780 779 779 779 778 778 779 781 782 781 781 784 784 786 787 788 790 791 791 791 792 793 793 795 797 798 801 803 804 805 805 807 808 809 811 812 814 816 817 819 820 822 824 825 827 827 829 831 832 833 834 835 837 839 840 841 842 843 844 844 845 846 846 847 848 849 849 850 851 851 851 852 852
752 753 756 760 764 766 767 773 775 772 780 791 791 786 780 782 793 795 787 784 784 783 782 781 783 783 783 783 783 783 785 786 786 785 786 790 791 790 788 788 791 792 793 793 793 794 795 795 796 798 800 801 803 804 805 807 807 808 810 811 813 815 817 819 820 821 823 824 826 827 829 831 831 832 834 835 837 838 839 841 841 842 844 844 845 846 847 848 848 849 850 850 851 852 852 853 853
753 751 752 757 762 764 764 775 784 778 776 783 785 779 778 788 796 796 793 789 786 785 783 782 785 785 786 787 787 789 790 790 791 790 791 794 794 792 790 791 794 794 795 795 795 795 796 796 797 798 800 801 802 804 805 807 807 808 810 811 813 815 817 818 819 820 822 823 825 827 828 830 830 831 832 834 836 837 839 840 841 842 843 844 845 846 847 848 849 849 850 851 852 852 853 854 854